Flag for India Weather past 2 weeks in Lucknow, Uttar Pradesh, India

Now
77 °F

Haze.


Feels Like: 78 °F
Forecast: 75 / 95 °F
Wind: No wind

Location: Lucknow / Amausi

Current Time: Sep 21, 2014 at 4:18:51 AM

Latest Report: Sep 21, 2014 at 3:00 AM


Visibility: 2 mi

Pressure: 29.62 "Hg

Humidity: 94%

Dew point: 75 °F

Location of LucknowLocation

Historic Weather in Lucknow — Graph

°F

Lucknow temperature yesterday

Maximum temperature yesterday: 102 °F (at 3:30 PM)
Minimum temperature yesterday: 79 °F (at 1:00 AM)
Average temperature yesterday: 89 °F

Past Weeks' High & Low Weather Summary

 TemperatureHumidityPressure
High102 °F (Sep 19, 11:00 AM)100% (Sep 6, 5:00 AM)29.74 "Hg (Sep 6, 5:00 AM)
Low75 °F (Sep 12, 10:30 AM)50% (Sep 18, 4:00 PM)29.53 "Hg (Sep 6, 4:00 PM)
Average87 °F81%29.63 "Hg
* Reported Sep 6 3:00 AM — Sep 21 3:00 AM, Lucknow, Weather by CustomWeather, © 2014

Note: Actual official high and low records may vary slightly from our data, if they occured in-between our weather recording intervals... More about our weather records

Advertising

Lucknow weather history for previous 24 hours

 ConditionsComfort  
Time TempWeatherWind HumidityBarometerVisibility
3:00 AM
Sep 21
77 °FHaze.No wind94%29.62 "Hg2 mi
1:00 AM77 °FHaze.No wind94%29.65 "Hg2 mi
12:00 AM77 °FHaze.No wind94%29.68 "Hg2 mi
11:00 PM
Sep 20
79 °FHaze.No wind94%29.68 "Hg2 mi
6:30 PM84 °FScattered clouds.No wind84%29.59 "Hg2 mi
6:00 PM88 °FScattered clouds.No wind79%29.56 "Hg2 mi
5:30 PM91 °FScattered clouds.No wind71%29.56 "Hg2 mi
5:00 PM97 °FScattered clouds.No wind60%29.56 "Hg2 mi
4:30 PM100 °FBroken clouds.No wind57%29.56 "Hg2 mi
4:00 PM102 °FBroken clouds.No wind54%29.56 "Hg2 mi
3:30 PM102 °FBroken clouds.No wind54%29.56 "Hg2 mi
2:30 PM95 °FMore clouds than sun.No wind67%29.62 "Hg2 mi
2:00 PM93 °FMore clouds than sun.No wind71%29.62 "Hg2 mi
1:30 PM90 °FCloudy.No wind79%29.65 "Hg2 mi
1:00 PM91 °FCloudy.No wind71%29.65 "Hg2 mi
12:30 PM93 °FCloudy.No wind67%29.65 "Hg2 mi
12:00 PM95 °FCloudy.5 mph67%29.68 "Hg2 mi
11:30 AM95 °FCloudy.5 mph67%29.68 "Hg2 mi
11:00 AM93 °FCloudy.5 mph67%29.68 "Hg2 mi
10:30 AM90 °FCloudy.5 mph75%29.68 "Hg2 mi
10:00 AM90 °FFog.6 mph75%29.68 "Hg1 mi
9:30 AM86 °FFog.6 mph84%29.68 "Hg1 mi
9:00 AM86 °FFog.6 mph84%29.68 "Hg1 mi
8:30 AM84 °FFog.7 mph84%29.68 "Hg1 mi
8:00 AM81 °FFog.7 mph94%29.68 "Hg1 mi
6:30 AM81 °FFog.7 mph100%29.65 "Hg1 mi
4:00 AM79 °FPassing clouds.No wind94%29.59 "Hg2 mi
Weather by CustomWeather, © 2014

See weather overviewHow to use our weather pages